Trapani, Italy

5:51 PM CEST on August 19, 2017 (GMT +0200)
Birgi Mil

Weather History for LICT - March, 2013

Change the Weather History Date:

Saturday, March 23, 2013

  Actual Average Record
Temperature  
Mean Temperature 56 °F -  
Max Temperature 70 °F 65 °F 75 °F (2001)
Min Temperature 43 °F 49 °F 39 °F (1998)
Degree Days  
Heating Degree Days 8    
Growing Degree Days 6 (Base 50)    
Moisture  
Dew Point 50 °F    
Average Humidity 77    
Maximum Humidity 94    
Minimum Humidity 46    
Precipitation  
Precipitation 0.00 in 0.05 in - ()
Sea Level Pressure  
Sea Level Pressure 29.80 in    
Wind  
Wind Speed 7 mph ()    
Max Wind Speed 26 mph    
Max Gust Speed 33 mph    
Visibility 12.0 miles    
Events      
Averages and records for this station are not official NWS values.
T = Trace of Precipitation, MM = Missing Value Source: Averaged Metar Reports

Daily Weather History Graph

Daily Weather History Graph

Search for Another Location

Airport or City:

Trip Planner

Search our weather history database for the weather conditions in past years. The results will help you decide how hot, cold, wet, or windy it might be!

Date:

Astronomy

Mar. 23, 2013 Rise Set
Actual Time 6:08 AM CET 6:24 PM CET
Civil Twilight 5:42 AM CET 6:50 PM CET
Nautical Twilight 5:11 AM CET 7:21 PM CET
Astronomical Twilight 4:40 AM CET 7:53 PM CET
Moon 2:37 PM CET (3/23) 3:31 AM CET (3/23)
Length of Visible Light 13h 08m
Length of Day
12h 15m
Waxing Gibbous, 83% of the Moon is Illuminated
Mar 23
Waxing Gibbous
Mar 27
Full
Apr 3
Last Quarter
Apr 10
New
Apr 18
First Quarter

Hourly Weather History & Observations

Time (CET) Temp. Dew Point Humidity Pressure Visibility Wind Dir Wind Speed Gust Speed Precip Events Conditions
12:55 AM 48.2 °F 44.6 °F 87% 29.89 in - Calm Calm - N/A   Clear
1:00 AM 47 °F 45 °F 92% 29.91 in 7 mi Calm Calm - -  
1:55 AM 46.4 °F 44.6 °F 93% 29.89 in - Calm Calm - N/A   Clear
2:55 AM 46.4 °F 44.6 °F 93% 29.86 in - East 2.3 mph - N/A   Clear
3:55 AM 46.4 °F 42.8 °F 87% 29.86 in - Calm Calm - N/A   Clear
4:55 AM 44.6 °F 42.8 °F 93% 29.86 in - Calm Calm - N/A   Clear
5:55 AM 42.8 °F 41.0 °F 93% 29.86 in - Calm Calm - N/A   Clear
6:55 AM 44.6 °F 41.0 °F 87% 29.86 in - Calm Calm - N/A   Clear
7:00 AM 44 °F 42 °F 89% 29.87 in 11 mi Calm Calm - -   Scattered Clouds
7:55 AM 50.0 °F 48.2 °F 94% 29.86 in - Calm Calm - N/A   Clear
8:55 AM 60.8 °F 48.2 °F 63% 29.86 in - SE 19.6 mph - N/A   Clear
9:55 AM 64.4 °F 48.2 °F 56% 29.83 in - SE 16.1 mph 27.6 mph N/A   Clear
10:55 AM 68.0 °F 50.0 °F 52% 29.83 in - SE 12.7 mph 24.2 mph N/A   Clear
11:55 AM 68.0 °F 48.2 °F 49% 29.80 in - SE 23.0 mph - N/A   Clear
12:55 PM 69.8 °F 53.6 °F 56% 29.80 in - SE 20.7 mph - N/A   Clear
1:00 PM 70 °F 54 °F 46% 29.80 in 19 mi SE 20.7 mph - -  
1:55 PM 69.8 °F 55.4 °F 60% 29.77 in - SSE 20.7 mph - N/A   Clear
2:55 PM 68.0 °F 57.2 °F 68% 29.74 in - SE 21.9 mph - N/A   Clear
3:55 PM 66.2 °F 57.2 °F 73% 29.74 in - SSE 21.9 mph 33.4 mph N/A   Clear
4:55 PM 64.4 °F 57.2 °F 77% 29.74 in - SE 26.5 mph - N/A   Clear
5:55 PM 62.6 °F 48.2 °F 59% 29.74 in - SE 17.3 mph - N/A   Clear
6:55 PM 59.0 °F 55.4 °F 88% 29.71 in - SE 19.6 mph - N/A   Clear
7:00 PM 59 °F 55 °F 82% 29.74 in 11 mi SE 19.6 mph - -   Scattered Clouds
7:55 PM 59.0 °F 55.4 °F 88% 29.71 in - ESE 13.8 mph - N/A   Clear
8:55 PM 59.0 °F 55.4 °F 88% 29.71 in - ESE 11.5 mph - N/A   Clear
9:55 PM 57.2 °F 53.6 °F 88% 29.71 in - ESE 12.7 mph - N/A   Clear
10:55 PM 57.2 °F 53.6 °F 88% 29.71 in - ESE 11.5 mph - N/A   Clear
11:55 PM 57.2 °F 50.0 °F 77% 29.68 in - ESE 17.3 mph - N/A   Clear